Flag for U.S.A. Weather past 2 weeks in Hampton, Virginia, U.S.A.

Now
83 °F

Sunny.


Feels Like: 90 °F
Forecast: 73 / 82 °F
Wind: 9 mph from Southeast

Location: Langley Air Force Base

Current Time: Aug 30, 2014 at 6:14:32 PM

Latest Report: Aug 30, 2014 at 5:58 PM


Visibility: 10 mi

Pressure: 30.16 "Hg

Humidity: 73%

Dew point: 74 °F

Location of HamptonLocation

Historic Weather in Hampton — Graph

°F

Hampton temperature yesterday

Maximum temperature yesterday: 79 °F (at 12:58 PM)
Minimum temperature yesterday: 72 °F (at 5:58 AM)
Average temperature yesterday: 76 °F

Past Weeks' High & Low Weather Summary

 TemperatureHumidityPressure
High87 °F (Aug 21, 1:58 PM)100% (Aug 16, 2:58 AM)30.26 "Hg (Aug 16, 2:58 AM)
Low64 °F (Aug 27, 2:03 AM)43% (Aug 27, 5:58 PM)29.76 "Hg (Aug 19, 2:49 AM)
Average76 °F82%30.01 "Hg
* Reported Aug 15 4:58 PM — Aug 30 4:58 PM, Hampton, Weather by CustomWeather, © 2014

Note: Actual official high and low records may vary slightly from our data, if they occured in-between our weather recording intervals... More about our weather records

Advertising

Hampton weather history for previous 24 hours

 ConditionsComfort  
Time TempWeatherWind HumidityBarometerVisibility
4:58 PM
Aug 30
84 °FSunny.8 mph72%30.16 "Hg10 mi
3:58 PM85 °FSunny.10 mph69%30.17 "Hg10 mi
2:58 PM84 °FSunny.10 mph70%30.19 "Hg10 mi
1:58 PM85 °FSunny.9 mph66%30.21 "Hg10 mi
12:58 PM84 °FScattered clouds.3 mph64%30.23 "Hg10 mi
11:58 AM82 °FScattered clouds.6 mph63%30.24 "Hg10 mi
10:58 AM80 °FPassing clouds.7 mph67%30.25 "Hg10 mi
9:58 AM77 °FPartly sunny.6 mph71%30.26 "Hg10 mi
8:58 AM77 °FPartly sunny.7 mph70%30.25 "Hg10 mi
7:58 AM76 °FBroken clouds.6 mph72%30.24 "Hg10 mi
6:58 AM74 °FOvercast.5 mph74%30.24 "Hg10 mi
6:00 AM75 °FPassing clouds.6 mph69%30.20 "Hg10 mi
5:58 AM75 °FDrizzle. Overcast.5 mph68%30.22 "Hg10 mi
5:03 AM75 °FPassing clouds.5 mph69%30.20 "Hg10 mi
4:03 AM75 °FLight rain. Mostly cloudy.7 mph69%30.19 "Hg10 mi
3:58 AM74 °FMostly cloudy.5 mph70%30.21 "Hg10 mi
2:58 AM74 °FPassing clouds.5 mph67%30.21 "Hg10 mi
1:58 AM75 °FOvercast.6 mph67%30.22 "Hg10 mi
12:58 AM73 °FClear.6 mph68%30.23 "Hg10 mi
11:58 PM
Aug 29
73 °FClear.5 mph67%30.22 "Hg10 mi
10:58 PM74 °FPassing clouds.3 mph67%30.21 "Hg10 mi
9:58 PM75 °FOvercast.3 mph64%30.22 "Hg10 mi
8:58 PM73 °FClear.6 mph68%30.20 "Hg10 mi
7:58 PM74 °FPartly sunny.7 mph68%30.18 "Hg10 mi
6:58 PM75 °FOvercast.7 mph67%30.18 "Hg10 mi
Weather by CustomWeather, © 2014

See weather overviewHow to use our weather pages